sat.trackr.live / text

‹ back to catalog

HAWK-2A

NORAD 47505 · 2021-006CW

PAYLOAD ACTIVE UNKNOWN

§ Identity

Operator
Country
US
Launch date
2021-01-24
Launch site
AFETR
Launch vehicle
Mass (kg)
RCS (m²)

Purposes: tech_demo

External: N2YO · Heavens-Above · Gunter

§ Orbital elements

Epoch: 2026-05-25T03:15:49.502304Z

Period
93.85 min
Inclination
97.2339°
Eccentricity
0.0004571
Mean motion
15.34357011 rev/d
Perigee alt
459.7 km
Apogee alt
466.0 km
Semi-major
6,841.0 km
B*
1.8593e-4
RAAN
190.5734°
Arg perigee
291.8529°
Mean anomaly
68.2228°
Rev number
29,596

§ Raw data

HAWK-2A1 47505U 21006CW  26145.13598961  .00006109  00000+0  18593-3 0  99942 47505  97.2339 190.5734 0004571 291.8529  68.2228 15.34357011295967

JSON: /api/v1/satellites/47505 · /tle

For live sub-satellite position, see the globe view (requires WebGL).

§ Visibility from observer

Set your observer location to see the next 7 days of passes ≥ 10°. The values pass through the URL so the page stays shareable.

No JS? Fill the form by hand. The geolocation button needs JavaScript.